Location: Escondida
(34.1015°N, 106.8964°W)
Time: 16:48:12
(UTC+00:00)

COSMOS 2455 - Pass Details

Date: 11 December 2025
Orbit: 898 x 910 km, 67.1° (Epoch: 16 January)

Event Time Altitude Azimuth Distance (km) Brightness Sun altitude
Exits shadow 12:47:28 22° 295° (WNW) 1,865 3.9 -15.3°
Maximum altitude 12:50:10 32° 253° (WSW) 1,510 3.6 -14.8°
Drops below altitude 10° 12:55:23 10° 192° (SSW) 2,577 5.3 -13.8°
Sets 12:58:07 0° 182° (S) 3,513 6.1 -13.2°
